• In Deutschland
  • Länderverzeichnis
  • Für 7 Tage
  • Wassertemperatur
  • Satellitenkarten
  • Wetterkarte
  • Widgets
  • user-avatar
    Anmelden

    Stündliche Wetter Sumgayit

    Heute, 30 April, Sonntag

    Zeit Temperatur Niederschläge Wind Luftdruck Luftfeuchtigkeit
    00:00 +13°C° 0 mm 1 m/S 742 mmHg 64%
    01:00 +13°C° 0 mm 1 m/S 742 mmHg 65%
    02:00 +13°C° 0 mm 1 m/S 741 mmHg 66%
    03:00 +13°C° 0 mm 1 m/S 741 mmHg 67%
    04:00 +14°C° 0 mm 1 m/S 741 mmHg 65%
    05:00 +14°C° 0 mm 2 m/S 741 mmHg 63%
    06:00 +15°C° 0 mm 2 m/S 741 mmHg 61%
    07:00 +16°C° 0 mm 2 m/S 741 mmHg 56%
    08:00 +18°C° 0 mm 2 m/S 741 mmHg 51%
    09:00 +19°C° 0 mm 3 m/S 742 mmHg 46%
    10:00 +20°C° 0 mm 4 m/S 742 mmHg 44%
    11:00 +21°C° 0 mm 4 m/S 741 mmHg 42%
    12:00 +22°C° 0 mm 4 m/S 741 mmHg 39%
    13:00 +22°C° 0 mm 5 m/S 741 mmHg 39%
    14:00 +22°C° 0 mm 5 m/S 740 mmHg 38%
    15:00 +22°C° 0 mm 5 m/S 740 mmHg 37%
    16:00 +21°C° 0 mm 5 m/S 740 mmHg 40%
    17:00 +20°C° 0 mm 4 m/S 740 mmHg 43%
    18:00 +19°C° 0 mm 4 m/S 740 mmHg 46%
    19:00 +18°C° 0 mm 3 m/S 740 mmHg 49%
    20:00 +17°C° 0 mm 3 m/S 740 mmHg 51%
    21:00 +16°C° 0 mm 2 m/S 740 mmHg 54%
    22:00 +16°C° 0 mm 2 m/S 740 mmHg 54%
    23:00 +16°C° 0 mm 2 m/S 740 mmHg 54%

    Morgen, 1 Mai, Montag

    Zeit Temperatur Niederschläge Wind Luftdruck Luftfeuchtigkeit
    00:00 +15°C° 0 mm 2 m/S 740 mmHg 54%
    01:00 +15°C° 0 mm 2 m/S 740 mmHg 54%
    02:00 +15°C° 0 mm 1 m/S 739 mmHg 54%
    03:00 +15°C° 0 mm 1 m/S 739 mmHg 54%
    04:00 +15°C° 0 mm 1 m/S 739 mmHg 53%
    05:00 +16°C° 0 mm 1 m/S 740 mmHg 52%
    06:00 +18°C° 0 mm 1 m/S 740 mmHg 52%
    07:00 +19°C° 0 mm 1 m/S 740 mmHg 47%
    08:00 +20°C° 0 mm 2 m/S 740 mmHg 42%
    09:00 +23°C° 0 mm 2 m/S 741 mmHg 37%
    10:00 +24°C° 0 mm 2 m/S 741 mmHg 35%
    11:00 +25°C° 0 mm 3 m/S 741 mmHg 33%
    12:00 +26°C° 0 mm 3 m/S 741 mmHg 31%
    13:00 +27°C° 0 mm 4 m/S 740 mmHg 32%
    14:00 +27°C° 0 mm 4 m/S 740 mmHg 32%
    15:00 +27°C° 0 mm 5 m/S 740 mmHg 33%
    16:00 +25°C° 0 mm 4 m/S 740 mmHg 37%
    17:00 +22°C° 0 mm 4 m/S 740 mmHg 41%
    18:00 +21°C° 0 mm 3 m/S 740 mmHg 45%
    19:00 +20°C° 0 mm 2 m/S 740 mmHg 48%
    20:00 +19°C° 0 mm 2 m/S 740 mmHg 51%
    21:00 +18°C° 0 mm 1 m/S 740 mmHg 54%
    22:00 +18°C° 0 mm 1 m/S 740 mmHg 55%
    23:00 +18°C° 0 mm 1 m/S 740 mmHg 56%

    übermorgen, 2 Mai, Dienstag

    Zeit Temperatur Niederschläge Wind Luftdruck Luftfeuchtigkeit
    00:00 +18°C° 0 mm 1 m/S 740 mmHg 56%
    01:00 +16°C° 0 mm 1 m/S 740 mmHg 56%
    02:00 +16°C° 0 mm 1 m/S 740 mmHg 56%
    03:00 +16°C° 0 mm 1 m/S 740 mmHg 56%
    04:00 +18°C° 0 mm 1 m/S 740 mmHg 54%
    05:00 +18°C° 0 mm 1 m/S 740 mmHg 51%
    06:00 +19°C° 0 mm 1 m/S 740 mmHg 49%
    07:00 +21°C° 0 mm 1 m/S 740 mmHg 43%
    08:00 +22°C° 0 mm 1 m/S 740 mmHg 37%
    09:00 +23°C° 0 mm 1 m/S 741 mmHg 31%
    10:00 +24°C° 0 mm 2 m/S 741 mmHg 28%
    11:00 +26°C° 0 mm 3 m/S 740 mmHg 25%
    12:00 +27°C° 0 mm 4 m/S 740 mmHg 23%
    13:00 +26°C° 0 mm 5 m/S 740 mmHg 23%
    14:00 +26°C° 0 mm 5 m/S 739 mmHg 24%
    15:00 +26°C° 0 mm 5 m/S 739 mmHg 24%
    16:00 +25°C° 0 mm 4 m/S 738 mmHg 27%
    17:00 +23°C° 0 mm 4 m/S 738 mmHg 29%
    18:00 +22°C° 0 mm 3 m/S 738 mmHg 31%
    19:00 +21°C° 0 mm 2 m/S 738 mmHg 33%
    20:00 +21°C° 0 mm 1 m/S 739 mmHg 36%
    21:00 +20°C° 0 mm 1 m/S 739 mmHg 38%
    22:00 +20°C° 0 mm 1 m/S 739 mmHg 37%
    23:00 +20°C° 0 mm 1 m/S 738 mmHg 37%

    3 Mai, Mittwoch

    Zeit Temperatur Niederschläge Wind Luftdruck Luftfeuchtigkeit
    00:00 +19°C° 0 mm 2 m/S 738 mmHg 36%
    01:00 +18°C° 0 mm 2 m/S 737 mmHg 38%
    02:00 +19°C° 0 mm 1 m/S 737 mmHg 40%
    03:00 +18°C° 0 mm 1 m/S 737 mmHg 42%
    04:00 +19°C° 0 mm 1 m/S 737 mmHg 43%
    05:00 +19°C° 0 mm 1 m/S 737 mmHg 43%
    06:00 +20°C° 0 mm 1 m/S 737 mmHg 44%
    07:00 +20°C° 0,1 mm 2 m/S 737 mmHg 41%
    08:00 +23°C° 0,1 mm 2 m/S 737 mmHg 39%
    09:00 +24°C° 0,1 mm 3 m/S 737 mmHg 37%
    10:00 +25°C° 0,1 mm 3 m/S 737 mmHg 36%
    11:00 +26°C° 0,1 mm 4 m/S 737 mmHg 35%
    12:00 +27°C° 0,1 mm 4 m/S 737 mmHg 34%
    13:00 +27°C° 0 mm 4 m/S 736 mmHg 34%
    14:00 +27°C° 0 mm 5 m/S 736 mmHg 33%
    15:00 +27°C° 0 mm 5 m/S 735 mmHg 33%
    16:00 +26°C° 0 mm 4 m/S 735 mmHg 36%
    17:00 +23°C° 0 mm 4 m/S 735 mmHg 39%
    18:00 +22°C° 0 mm 3 m/S 735 mmHg 42%
    19:00 +21°C° 0,2 mm 2 m/S 736 mmHg 46%
    20:00 +20°C° 0,2 mm 2 m/S 736 mmHg 49%
    21:00 +20°C° 0,2 mm 1 m/S 736 mmHg 53%
    22:00 +18°C° 0 mm 2 m/S 736 mmHg 54%
    23:00 +18°C° 0 mm 2 m/S 736 mmHg 56%

    4 Mai, Donnerstag

    Zeit Temperatur Niederschläge Wind Luftdruck Luftfeuchtigkeit
    00:00 +17°C° 0 mm 3 m/S 735 mmHg 58%
    01:00 +17°C° 0 mm 3 m/S 735 mmHg 59%
    02:00 +16°C° 0 mm 3 m/S 735 mmHg 60%
    03:00 +16°C° 0 mm 3 m/S 735 mmHg 62%
    04:00 +15°C° 0 mm 4 m/S 735 mmHg 61%
    05:00 +17°C° 0 mm 4 m/S 736 mmHg 59%
    06:00 +17°C° 0 mm 4 m/S 736 mmHg 58%
    07:00 +18°C° 0,1 mm 4 m/S 736 mmHg 56%
    08:00 +20°C° 0,1 mm 5 m/S 737 mmHg 53%
    09:00 +21°C° 0,1 mm 5 m/S 737 mmHg 51%
    10:00 +21°C° 0,1 mm 5 m/S 737 mmHg 51%
    11:00 +22°C° 0,1 mm 4 m/S 737 mmHg 52%
    12:00 +22°C° 0,1 mm 4 m/S 737 mmHg 52%
    13:00 +22°C° 0 mm 5 m/S 737 mmHg 51%
    14:00 +23°C° 0 mm 5 m/S 737 mmHg 50%
    15:00 +23°C° 0 mm 5 m/S 737 mmHg 49%
    16:00 +22°C° 0 mm 5 m/S 737 mmHg 53%
    17:00 +22°C° 0 mm 5 m/S 737 mmHg 56%
    18:00 +21°C° 0 mm 5 m/S 737 mmHg 60%
    19:00 +20°C° 0,2 mm 5 m/S 737 mmHg 64%
    20:00 +19°C° 0,2 mm 4 m/S 737 mmHg 69%
    21:00 +18°C° 0,2 mm 3 m/S 738 mmHg 74%
    22:00 +18°C° 0 mm 3 m/S 737 mmHg 74%
    23:00 +17°C° 0 mm 2 m/S 737 mmHg 74%

    5 Mai, Freitag

    Zeit Temperatur Niederschläge Wind Luftdruck Luftfeuchtigkeit
    00:00 +17°C° 0 mm 2 m/S 737 mmHg 75%
    01:00 +17°C° 0 mm 2 m/S 737 mmHg 75%
    02:00 +17°C° 0 mm 2 m/S 737 mmHg 75%
    03:00 +16°C° 0 mm 2 m/S 737 mmHg 75%
    04:00 +17°C° 0 mm 2 m/S 738 mmHg 73%
    05:00 +17°C° 0 mm 2 m/S 738 mmHg 70%
    06:00 +18°C° 0 mm 2 m/S 738 mmHg 68%
    07:00 +19°C° 0 mm 2 m/S 738 mmHg 62%
    08:00 +21°C° 0 mm 2 m/S 739 mmHg 56%
    09:00 +22°C° 0 mm 3 m/S 739 mmHg 51%
    10:00 +24°C° 0 mm 3 m/S 739 mmHg 48%
    11:00 +25°C° 0 mm 4 m/S 738 mmHg 46%
    12:00 +25°C° 0 mm 4 m/S 738 mmHg 43%
    13:00 +25°C° 0 mm 4 m/S 738 mmHg 44%
    14:00 +25°C° 0 mm 5 m/S 738 mmHg 44%
    15:00 +23°C° 0 mm 5 m/S 738 mmHg 45%
    16:00 +22°C° 0 mm 5 m/S 738 mmHg 45%
    17:00 +22°C° 0 mm 5 m/S 738 mmHg 46%
    18:00 +21°C° 0 mm 5 m/S 738 mmHg 47%
    19:00 +20°C° 0 mm 4 m/S 738 mmHg 50%
    20:00 +19°C° 0 mm 4 m/S 738 mmHg 53%
    21:00 +18°C° 0 mm 3 m/S 738 mmHg 56%
    22:00 +18°C° 0 mm 3 m/S 738 mmHg 59%
    23:00 +17°C° 0 mm 2 m/S 738 mmHg 61%
    Mehr zeigen